Location: Del Amo
(33.8464°N, 118.2104°W)
Time: 08:37:49
(UTC+00:00)

Vanguard 1 Rocket - Pass Details

Date: 18 September 2024
Orbit: 650 x 4218 km, 34.3° (Epoch: 09 October)

Event Time Altitude Azimuth Distance (km) Brightness Sun altitude
Rises 18:40:26 0° 287° (WNW) 8,156 12.0 54.1°
Reaches altitude 10° 18:47:06 10° 278° (W) 7,342 11.9 54.7°
Maximum altitude 19:06:52 29° 229° (SW) 5,651 12.0 56.3°
Drops below altitude 10° 19:23:28 10° 177° (S) 6,058 12.3 57.1°
Sets 19:28:24 0° 166° (SSE) 6,588 12.3 57.3°
